Starlink 3362

operational
NORAD ID: 51108 Int'l Des: 2022-005 Owner: SPXS Country: US Constellation: starlink
LEOCIRCULAR

About Starlink 3362

Description loading...

Live Position

Loading 3D Globe...

Upcoming Passes

Altitude History

Altitude vs Time

uPlot chart will show altitude changes over time

Two-Line Element Set

1 51108U 22005E 26035.39133448 .00000333 00000-0 39014-4 0 9995
2 51108 53.2171 78.6011 0001184 86.2356 273.8772 15.08849323223852
Epoch: Feb 4, 2026 • Age: 27 hours

Current Status

Altitude 558.5 km
Velocity 7.58 km/s
Sub-Earth Point -51.77°S, 9.19°E
Launch Date Jan 19, 2022
Age 4 years
Type internet

Technical Details

Classification Payload
Mass 297.00 kg
Dry Mass 275.00 kg
Total Mass 297.00 kg
Length 0.20 m
Diameter 2.80 m
Span 9.00 m
Shape Box + pan
Manufacturer SPXS
Bus Type Starlink
Phase Status In Orbit
Owner/State SPXS/US

Large Constellations

Loading constellations...